This demonstration page uses our WeatherBlox Daily Observations layout. Learn more.

Left ArrowRight Arrow

Hourly Observations for October 19, 2018

Temp ( °F °C ) Dew Point ( °F °C ) Humidity (%) Winds ( mph kmh ) Pressure ( in mb ) Visibility ( mi km ) Precip ( " mm )
12:51 am 00:51 Cloudy 55 12.8 50 10 83 83 SE 5 7 30.11 1020 10 16 0.00 0.00
1:51 am 01:51 Cloudy 56 13.3 50 10 81 81 SE 7 11 30.10 1019 10 16 0.00 0.00
2:51 am 02:51 Cloudy 56 13.3 51 10.6 84 84 ESE 6 9 30.09 1019 10 16 0.00 0.00
3:51 am 03:51 Cloudy 56 13.3 50 10 81 81 SE 6 9 30.08 1019 10 16 0.00 0.00
4:40 am 04:40 Cloudy 55 13 50 10 82 82 SE 5 7 30.12 1020 10 16 0.00 0.00
4:51 am 04:51 Cloudy 56 13.3 50 10 81 81 ESE 5 7 30.09 1019 10 16 0.00 0.00
5:01 am 05:01 Cloudy 56 13.3 51 10.6 84 84 SE 6 9 30.15 1021 10 16 0.00 0.00
5:51 am 05:51 Cloudy 56 13.3 51 10.6 84 84 SE 5 7 30.10 1019 10 16 0.00 0.00
6:51 am 06:51 Cloudy 56 13.3 52 11.1 87 87 ESE 7 11 30.11 1020 10 16 0.00 0.00
7:51 am 07:51 Cloudy 57 13.9 52 11.1 83 83 ESE 7 11 30.14 1021 10 16 0.00 0.00
8:51 am 08:51 Cloudy 59 15 51 10.6 75 75 SSE 9 15 30.15 1021 10 16 0.00 0.00
9:51 am 09:51 Cloudy 60 15.6 51 10.6 72 72 SSE 8 13 30.14 1021 10 16 0.00 0.00
10:51 am 10:51 Cloudy 62 16.7 51 10.6 67 67 SE 9 15 30.12 1020 10 16 0.00 0.00
11:51 am 11:51 Cloudy 64 17.8 51 10.6 63 63 SSE 6 9 30.10 1019 10 16 0.00 0.00
12:51 pm 12:51 Mostly Sunny 67 19.4 52 11.1 59 59 S 9 15 30.06 1018 10 16 0.00 0.00
1:51 pm 13:51 Sunny 68 20 52 11.1 57 57 S 10 17 30.03 1017 10 16 0.00 0.00
2:51 pm 14:51 Sunny 70 21.1 52 11.1 53 53 S 13 20 30.01 1016 10 16 0.00 0.00
3:51 pm 15:51 Sunny 71 21.7 53 11.7 53 53 S 12 19 30.00 1016 10 16 0.00 0.00
4:51 pm 16:51 Sunny 70 21.1 53 11.7 55 55 S 10 17 30.00 1016 10 16 0.00 0.00
5:51 pm 17:51 Clear 66 18.9 53 11.7 63 63 SSE 5 7 30.01 1016 10 16 0.00 0.00
6:51 pm 18:51 Clear 64 17.8 54 12.2 70 70 ESE 7 11 30.04 1017 10 16 0.00 0.00
7:51 pm 19:51 Clear 64 17.8 54 12.2 70 70 E 6 9 30.04 1017 10 16 0.00 0.00
8:51 pm 20:51 Clear 61 16.1 54 12.2 78 78 E 6 9 30.06 1018 10 16 0.00 0.00
9:51 pm 21:51 Mostly Clear 61 16.1 54 12.2 78 78 ESE 6 9 30.07 1018 10 16 0.00 0.00
10:51 pm 22:51 Mostly Cloudy 59 15 54 12.2 83 83 ESE 6 9 30.08 1019 10 16 0.00 0.00
11:51 pm 23:51 Clear 58 14.4 54 12.2 87 87 E 5 7 30.08 1019 10 16 0.00 0.00

Powered by AerisWeather